Weather History for Mobile, AL

Change the Weather History Date:

Saturday, April 12, 2014

  Actual Average Record
Temperature  
Mean Temperature 66 °F 66 °F  
Max Temperature 78 °F 77 °F 90 °F (1965)
Min Temperature 54 °F 54 °F 39 °F (1989)
Degree Days  
Heating Degree Days 0 2  
Month to date heating degree days 28 38  
Since 1 July heating degree days 2007 1669  
Cooling Degree Days 1 3  
Month to date cooling degree days 20 29  
Year to date cooling degree days 33 84  
Growing Degree Days 16 (Base 50)    
Moisture  
Dew Point 57 °F    
Average Humidity 72    
Maximum Humidity 100    
Minimum Humidity 43    
Precipitation  
Precipitation 0.00 in 0.17 in 3.61 in (1980)
Month to date precipitation 1.72 2.05  
Year to date precipitation 15.34 18.96  
Snow  
Snow 0.00 in 0.00 in - ()
Month to date snowfall 0.0 0.0  
Since 1 July snowfall 1.3 0.2  
Snow Depth 0.00 in    
Sea Level Pressure  
Sea Level Pressure 30.14 in    
Wind  
Wind Speed 7 mph (SE)    
Max Wind Speed 17 mph    
Max Gust Speed 28 mph    
Visibility 6 miles    
Events Fog    
T = Trace of Precipitation, MM = Missing Value Source: NWS Daily Summary

Daily Weather History Graph

Daily Weather History Graph

Search for Another Location

Airport:

Trip Planner

Search our weather history database for the weather conditions in past years. The results will help you decide how hot, cold, wet, or windy it might be!

Date:

Astronomy

Apr. 12, 2014 Rise Set
Actual Time 6:28 AM CDT 7:19 PM CDT
Civil Twilight 6:04 AM CDT 7:43 PM CDT
Nautical Twilight 5:35 AM CDT 8:12 PM CDT
Astronomical Twilight 5:05 AM CDT 8:42 PM CDT
Moon 5:06 PM CDT (4/12) 4:44 AM CDT (4/12)
Length of Visible Light 13h 39m
Length of Day
12h 50m
Waxing Gibbous, 93% of the Moon is Illuminated
Apr 12
Waxing Gibbous
Apr 15
Full
Apr 22
Last Quarter
Apr 29
New
May 6
First Quarter

Hourly Weather History & Observations

Time (CDT) Temp. Dew Point Humidity Pressure Visibility Wind Dir Wind Speed Gust Speed Precip Events Conditions
12:56 AM 57.9 °F 57.9 °F 100% 30.15 in 6.0 mi Calm Calm - N/A   Clear
1:56 AM 57.0 °F 57.0 °F 100% 30.14 in 7.0 mi Calm Calm - N/A   Clear
2:53 AM 57.2 °F 57.2 °F 100% 30.14 in 4.0 mi Calm Calm - N/A   Scattered Clouds
2:56 AM 57.0 °F 57.0 °F 100% 30.13 in 4.0 mi Calm Calm - N/A   Mostly Cloudy
3:28 AM 57.0 °F 57.0 °F 100% 30.14 in 1.5 mi Calm Calm - N/A   Overcast
3:38 AM 57.0 °F 57.0 °F 100% 30.14 in 2.0 mi Calm Calm - N/A   Overcast
3:46 AM 55.4 °F 55.4 °F 100% 30.14 in 3.0 mi Calm Calm - N/A   Overcast
3:56 AM 55.0 °F 55.0 °F 100% 30.14 in 7.0 mi Calm Calm - N/A   Overcast
4:14 AM 54.0 °F 54.0 °F 100% 30.14 in 7.0 mi Calm Calm - N/A   Overcast
4:31 AM 55.0 °F 55.0 °F 100% 30.15 in 0.8 mi NE 3.5 mph - N/A   Mist
4:39 AM 55.9 °F 55.9 °F 100% 30.15 in 0.2 mi ENE 3.5 mph - N/A Fog Fog
4:56 AM 57.9 °F 57.9 °F 100% 30.14 in 0.2 mi Calm Calm - N/A Fog Fog
5:56 AM 57.9 °F 57.9 °F 100% 30.15 in 0.2 mi East 3.5 mph - N/A Fog Fog
6:56 AM 59.0 °F 59.0 °F 100% 30.16 in 0.2 mi East 3.5 mph - N/A Fog Fog
7:56 AM 61.0 °F 61.0 °F 100% 30.17 in 0.2 mi ESE 5.8 mph - N/A Fog Fog
8:31 AM 62.1 °F 62.1 °F 100% 30.18 in 0.5 mi SE 5.8 mph - N/A   Overcast
8:56 AM 63.0 °F 63.0 °F 100% 30.18 in 3.0 mi ESE 6.9 mph - N/A   Mostly Cloudy
9:19 AM 64.0 °F 64.0 °F 100% 30.19 in 7.0 mi ESE 8.1 mph - N/A   Partly Cloudy
9:56 AM 70.0 °F 61.0 °F 73% 30.19 in 10.0 mi SE 10.4 mph - N/A   Partly Cloudy
10:56 AM 75.0 °F 55.9 °F 51% 30.19 in 10.0 mi SE 12.7 mph - N/A   Partly Cloudy
11:56 AM 75.9 °F 55.9 °F 50% 30.18 in 10.0 mi SE 16.1 mph - N/A   Partly Cloudy
12:56 PM 77.0 °F 55.0 °F 47% 30.17 in 10.0 mi SSE 9.2 mph - N/A   Scattered Clouds
1:56 PM 78.1 °F 55.9 °F 46% 30.15 in 10.0 mi SE 12.7 mph - N/A   Scattered Clouds
2:56 PM 77.0 °F 55.0 °F 47% 30.13 in 10.0 mi South 11.5 mph - N/A   Scattered Clouds
3:56 PM 75.9 °F 55.0 °F 48% 30.11 in 10.0 mi SSE 12.7 mph 17.3 mph N/A   Scattered Clouds
4:56 PM 75.9 °F 54.0 °F 46% 30.10 in 10.0 mi SSE 11.5 mph 16.1 mph N/A   Partly Cloudy
5:56 PM 75.0 °F 52.0 °F 44% 30.09 in 10.0 mi SSE 11.5 mph - N/A   Partly Cloudy
6:56 PM 71.1 °F 50.0 °F 47% 30.09 in 10.0 mi SSE 9.2 mph - N/A   Partly Cloudy
7:56 PM 66.0 °F 54.0 °F 65% 30.09 in 10.0 mi SE 6.9 mph - N/A   Partly Cloudy
8:56 PM 64.0 °F 57.0 °F 78% 30.10 in 10.0 mi SSE 6.9 mph - N/A   Clear
9:56 PM 62.1 °F 57.9 °F 86% 30.10 in 10.0 mi SSE 5.8 mph - N/A   Clear
10:56 PM 61.0 °F 59.0 °F 93% 30.11 in 10.0 mi South 4.6 mph - N/A   Clear
11:56 PM 62.1 °F 59.0 °F 90% 30.10 in 10.0 mi SSE 5.8 mph - N/A   Clear